SM5FGQ-2 Weather Reports


Display with metric or nautical units.
time (UTC)temp
F
wind
direction
speed
MPH
gust
MPH
rain 1hr
in
rain 24hr
in
rain mn
in
humidity
%
barometer
mb
20260508130119 61 39 4.0 10.0 0.00 0.00 0.00 26 1022.5
20260508123047 61 152 4.0 11.0 0.00 0.00 0.00 27 1022.5
20260508120040 61 164 4.0 10.0 0.00 0.00 0.00 27 1022.5
20260508113030 60 171 4.0 14.0 0.00 0.00 0.00 28 1022.4
20260508110019 60 71 4.0 9.0 0.00 0.00 0.00 28 1022.4
20260508103110 60 47 4.0 11.0 0.00 0.00 0.00 27 1022.3
20260508100100 60 156 3.0 8.0 0.00 0.00 0.00 27 1022.2
20260508093050 59 151 4.0 11.0 0.00 0.00 0.00 28 1022.3
20260508090040 59 158 3.0 9.0 0.00 0.00 0.00 31 1022.3
20260508083032 59 157 5.0 11.0 0.00 0.00 0.00 32 1022.3
20260508080020 60 186 4.0 9.0 0.00 0.00 0.00 32 1022.2
20260508073112 67 86 3.0 9.0 0.00 0.00 0.00 29 1021.9
20260508070104 67 158 2.0 7.0 0.00 0.00 0.00 33 1021.6
20260508063052 56 182 2.0 6.0 0.00 0.00 0.00 56 1021.4
20260508060043 43 161 2.0 5.0 0.00 0.00 0.00 79 1021.1
20260508053033 37 180 1.0 3.0 0.00 0.00 0.00 85 1020.9
20260508050023 34 180 1.0 3.0 0.00 0.00 0.00 84 1020.7
20260508043114 31 180 1.0 2.0 0.00 0.00 0.00 83 1020.4
20260508040106 30 180 1.0 2.0 0.00 0.00 0.00 81 1020.1
20260508033056 30 180 1.0 2.0 0.00 0.00 0.00 80 1019.8
20260508030046 31 180 0.0 1.0 0.00 0.00 0.00 80 1019.4
20260508023054 31 180 1.0 2.0 0.00 0.00 0.00 80 1019.2
20260508020025 30 180 0.0 2.0 0.00 0.00 0.00 76 1019.1
20260508013115 31 180 1.0 2.0 0.00 0.00 0.00 74 1018.8
20260508010106 32 180 0.0 2.0 0.00 0.00 0.00 72 1018.5
20260508003057 33 180 0.0 2.0 0.00 0.00 0.00 71 1018.2
20260508000048 34 180 0.0 1.0 0.00 0.00 0.00 68 1017.9
20260507233038 35 180 0.0 2.0 0.00 0.00 0.00 66 1017.6
20260507230029 35 180 0.0 2.0 0.00 0.00 0.00 62 1017.3
20260507223102 37 180 0.0 3.0 0.00 0.00 0.00 60 1017.1
20260507220110 38 180 0.0 2.0 0.00 0.00 0.00 57 1016.9
20260507213102 39 180 0.0 2.0 0.00 0.00 0.00 52 1016.8
20260507210051 41 180 0.0 3.0 0.00 0.00 0.00 50 1016.4
20260507203042 42 180 0.0 2.0 0.00 0.00 0.00 47 1016.0
20260507200031 43 180 1.0 3.0 0.00 0.00 0.00 45 1015.6
20260507193022 45 180 0.0 3.0 0.00 0.00 0.00 39 1015.1
20260507190112 48 180 0.0 2.0 0.00 0.00 0.00 33 1014.7
20260507183104 51 180 1.0 2.0 0.00 0.00 0.00 31 1014.4
20260507180115 53 180 1.0 3.0 0.00 0.00 0.00 29 1014.1
20260507173043 56 143 2.0 6.0 0.00 0.00 0.00 27 1013.6
20260507170034 59 159 2.0 7.0 0.00 0.00 0.00 28 1013.2
20260507163026 61 159 3.0 9.0 0.00 0.00 0.00 30 1012.9
20260507160136 61 190 3.0 6.0 0.00 0.00 0.00 30 1012.8
20260507153106 60 191 3.0 9.0 0.00 0.00 0.00 30 1012.4
20260507150057 60 145 3.0 8.0 0.00 0.00 0.00 29 1012.3
20260507143047 60 156 3.0 7.0 0.00 0.00 0.00 30 1012.1
20260507140038 61 149 3.0 9.0 0.00 0.00 0.00 30 1012.0
20260507133027 61 342 5.0 12.0 0.00 0.00 0.00 31 1011.8